Location: Hac?musa Deresi
(39.1694°N, 32.2508°E)
Time: 23:29:54
(UTC+00:00)

NOSS 3-1 (C) - Pass Details

Date: 22 April 2026
Orbit: 618 x 1583 km, 63.4° (Epoch: 10 January)

Event Time Altitude Azimuth Distance (km) Brightness Sun altitude
Rises 19:24:07 0° 325° (NW) 3,874 7.9 -28.3°
Reaches altitude 10° 19:26:33 10° 325° (NW) 3,041 7.0 -28.6°
Maximum altitude 19:34:03 83° 240° (WSW) 1,354 4.1 -29.5°
Enters shadow 19:35:43 63° 164° (SSE) 1,522 4.1 -29.7°
